| time (UTC) | temp C | wind direction | speed KPH | gust KPH | rain 1hr cm | rain 24hr cm | rain mn cm | humidity % | barometer mb |
| 20260509230506 | 18 | 316 | 9.7 | 17.7 | 0.00 | 0.00 | 0.00 | 22 | 1013.3 |
| 20260509230005 | 18 | 315 | 8.0 | 12.9 | 0.00 | 0.00 | 0.00 | 25 | 1003.8 |
| 20260509225505 | 18 | 317 | 4.8 | 9.7 | 0.00 | 0.00 | 0.00 | 24 | 1013.4 |
| 20260509225007 | 18 | 15 | 3.2 | 14.5 | 0.00 | 0.00 | 0.00 | 25 | 1013.2 |
| 20260509224505 | 19 | 15 | 4.8 | 19.3 | 0.00 | 0.00 | 0.00 | 27 | 1013.1 |
| 20260509224503 | 19 | 15 | 3.2 | 19.3 | 0.00 | 0.00 | 0.00 | 27 | 1003.4 |
| 20260509224006 | 19 | 24 | 14.5 | 19.3 | 0.00 | 0.00 | 0.00 | 26 | 1013.1 |
| 20260509223504 | 19 | 355 | 8.0 | 19.3 | 0.00 | 0.00 | 0.00 | 27 | 1012.9 |
| 20260509223006 | 18 | 26 | 8.0 | 17.7 | 0.00 | 0.00 | 0.00 | 27 | 1012.9 |
| 20260509223003 | 18 | 26 | 8.0 | 17.7 | 0.00 | 0.00 | 0.00 | 27 | 1003.1 |
| 20260509222505 | 18 | 30 | 12.9 | 17.7 | 0.00 | 0.00 | 0.00 | 26 | 1013.0 |
| 20260509222005 | 18 | 355 | 8.0 | 16.1 | 0.00 | 0.00 | 0.00 | 27 | 1012.9 |
| 20260509221506 | 18 | 35 | 6.4 | 11.3 | 0.00 | 0.00 | 0.00 | 26 | 1013.0 |
| 20260509221504 | 18 | 35 | 4.8 | 11.3 | 0.00 | 0.00 | 0.00 | 26 | 1003.2 |
| 20260509221005 | 18 | 55 | 8.0 | 20.9 | 0.00 | 0.00 | 0.00 | 27 | 1012.9 |
| 20260509220506 | 19 | 9 | 11.3 | 20.9 | 0.00 | 0.00 | 0.00 | 25 | 1013.0 |
| 20260509220004 | 19 | 40 | 12.9 | 22.5 | 0.00 | 0.00 | 0.00 | 26 | 1003.0 |
| 20260509215505 | 20 | 44 | 16.1 | 22.5 | 0.00 | 0.00 | 0.00 | 25 | 1012.8 |
| 20260509215006 | 19 | 5 | 4.8 | 19.3 | 0.00 | 0.00 | 0.00 | 28 | 1013.1 |
| 20260509214505 | 19 | 288 | 11.3 | 22.5 | 0.00 | 0.00 | 0.00 | 24 | 1013.1 |
| 20260509214005 | 18 | 262 | 12.9 | 25.7 | 0.00 | 0.00 | 0.00 | 27 | 1013.2 |
| 20260509213506 | 18 | 308 | 16.1 | 37.0 | 0.00 | 0.00 | 0.00 | 24 | 1013.2 |
| 20260509213007 | 18 | 275 | 17.7 | 37.0 | 0.00 | 0.00 | 0.00 | 24 | 1013.2 |
| 20260509213003 | 18 | 275 | 17.7 | 37.0 | 0.00 | 0.00 | 0.00 | 24 | 1003.5 |
| 20260509212505 | 18 | 26 | 8.0 | 27.4 | 0.00 | 0.00 | 0.00 | 23 | 1013.3 |
| 20260509212006 | 19 | 27 | 16.1 | 22.5 | 0.00 | 0.00 | 0.00 | 27 | 1013.5 |
| 20260509211505 | 19 | 355 | 6.4 | 20.9 | 0.00 | 0.00 | 0.00 | 29 | 1013.6 |
| 20260509211503 | 19 | 355 | 4.8 | 20.9 | 0.00 | 0.00 | 0.00 | 29 | 1003.8 |
| 20260509210505 | 20 | 13 | 9.7 | 20.9 | 0.00 | 0.00 | 0.00 | 28 | 1013.5 |
| 20260509210009 | 20 | 311 | 8.0 | 17.7 | 0.00 | 0.00 | 0.00 | 28 | 1013.3 |
| 20260509210004 | 20 | 311 | 6.4 | 17.7 | 0.00 | 0.00 | 0.00 | 28 | 1003.6 |
| 20260509205505 | 20 | 47 | 6.4 | 17.7 | 0.00 | 0.00 | 0.00 | 25 | 1013.4 |
| 20260509205006 | 20 | 19 | 8.0 | 17.7 | 0.00 | 0.00 | 0.00 | 26 | 1013.4 |
| 20260509204506 | 20 | 351 | 6.4 | 16.1 | 0.00 | 0.00 | 0.00 | 26 | 1013.3 |
| 20260509204503 | 20 | 351 | 4.8 | 16.1 | 0.00 | 0.00 | 0.00 | 26 | 1003.6 |
| 20260509204007 | 20 | 360 | 8.0 | 25.7 | 0.00 | 0.00 | 0.00 | 29 | 1013.3 |
| 20260509203505 | 20 | 237 | 11.3 | 25.7 | 0.00 | 0.00 | 0.00 | 26 | 1013.5 |
| 20260509203006 | 20 | 22 | 12.9 | 20.9 | 0.00 | 0.00 | 0.00 | 28 | 1013.5 |
| 20260509203003 | 20 | 22 | 12.9 | 20.9 | 0.00 | 0.00 | 0.00 | 28 | 1003.9 |
| 20260509202505 | 20 | 11 | 11.3 | 30.6 | 0.00 | 0.00 | 0.00 | 27 | 1013.5 |
| 20260509202007 | 20 | 43 | 20.9 | 30.6 | 0.00 | 0.00 | 0.00 | 28 | 1013.6 |
| 20260509201507 | 20 | 27 | 12.9 | 29.0 | 0.00 | 0.00 | 0.00 | 28 | 1013.6 |
| 20260509201503 | 20 | 27 | 12.9 | 29.0 | 0.00 | 0.00 | 0.00 | 28 | 1004.0 |
| 20260509201008 | 20 | 309 | 8.0 | 30.6 | 0.00 | 0.00 | 0.00 | 26 | 1013.6 |
| 20260509200505 | 20 | 5 | 17.7 | 30.6 | 0.00 | 0.00 | 0.00 | 29 | 1013.7 |
| 20260509200007 | 20 | 21 | 12.9 | 30.6 | 0.00 | 0.00 | 0.00 | 26 | 1013.7 |
| 20260509200004 | 20 | 21 | 12.9 | 30.6 | 0.00 | 0.00 | 0.00 | 26 | 1004.1 |
| 20260509195504 | 20 | 26 | 11.3 | 30.6 | 0.00 | 0.00 | 0.00 | 24 | 1013.8 |
| 20260509195006 | 20 | 350 | 11.3 | 27.4 | 0.00 | 0.00 | 0.00 | 28 | 1013.8 |
| 20260509194505 | 20 | 346 | 8.0 | 27.4 | 0.00 | 0.00 | 0.00 | 25 | 1013.8 |
| 20260509194007 | 20 | 347 | 11.3 | 20.9 | 0.00 | 0.00 | 0.00 | 25 | 1013.7 |
| 20260509193505 | 20 | 28 | 8.0 | 17.7 | 0.00 | 0.00 | 0.00 | 25 | 1013.6 |
| 20260509193006 | 20 | 324 | 6.4 | 27.4 | 0.00 | 0.00 | 0.00 | 23 | 1013.8 |
| 20260509193003 | 20 | 324 | 6.4 | 27.4 | 0.00 | 0.00 | 0.00 | 23 | 1004.3 |
| 20260509192505 | 20 | 317 | 9.7 | 27.4 | 0.00 | 0.00 | 0.00 | 26 | 1013.7 |
| 20260509191505 | 20 | 351 | 11.3 | 27.4 | 0.00 | 0.00 | 0.00 | 29 | 1013.8 |
| 20260509191006 | 20 | 23 | 12.9 | 20.9 | 0.00 | 0.00 | 0.00 | 26 | 1013.9 |
| 20260509190504 | 19 | 32 | 6.4 | 20.9 | 0.00 | 0.00 | 0.00 | 30 | 1013.9 |
| 20260509190009 | 19 | 34 | 14.5 | 24.1 | 0.00 | 0.00 | 0.00 | 26 | 1013.9 |
| 20260509190006 | 19 | 34 | 12.9 | 24.1 | 0.00 | 0.00 | 0.00 | 26 | 1004.7 |
| 20260509185504 | 19 | 25 | 11.3 | 20.9 | 0.00 | 0.00 | 0.00 | 29 | 1013.9 |
| 20260509185005 | 20 | 31 | 8.0 | 20.9 | 0.00 | 0.00 | 0.00 | 28 | 1013.9 |
| 20260509184503 | 20 | 351 | 9.7 | 19.3 | 0.00 | 0.00 | 0.00 | 29 | 1004.8 |
| 20260509184006 | 20 | 334 | 8.0 | 25.7 | 0.00 | 0.00 | 0.00 | 32 | 1014.0 |
| 20260509183505 | 20 | 19 | 11.3 | 27.4 | 0.00 | 0.00 | 0.00 | 30 | 1013.9 |
| 20260509183011 | 20 | 349 | 14.5 | 27.4 | 0.00 | 0.00 | 0.00 | 20 | 1004.8 |
| 20260509183006 | 20 | 349 | 14.5 | 27.4 | 0.00 | 0.00 | 0.00 | 20 | 1013.9 |
| 20260509182505 | 20 | 347 | 11.3 | 20.9 | 0.00 | 0.00 | 0.00 | 22 | 1014.0 |
| 20260509182005 | 20 | 300 | 9.7 | 19.3 | 0.00 | 0.00 | 0.00 | 23 | 1014.1 |
| 20260509181504 | 19 | 28 | 4.8 | 25.7 | 0.00 | 0.00 | 0.00 | 22 | 1014.0 |
| 20260509181006 | 19 | 286 | 16.1 | 25.7 | 0.00 | 0.00 | 0.00 | 21 | 1014.2 |
| 20260509180007 | 20 | 324 | 8.0 | 17.7 | 0.00 | 0.00 | 0.00 | 22 | 1014.2 |
| 20260509180005 | 20 | 324 | 8.0 | 17.7 | 0.00 | 0.00 | 0.00 | 22 | 1005.1 |
| 20260509175506 | 20 | 355 | 6.4 | 20.9 | 0.00 | 0.00 | 0.00 | 23 | 1014.0 |
| 20260509175006 | 20 | 341 | 9.7 | 22.5 | 0.00 | 0.00 | 0.00 | 23 | 1014.1 |
| 20260509174506 | 20 | 329 | 8.0 | 22.5 | 0.00 | 0.00 | 0.00 | 25 | 1014.1 |
| 20260509174005 | 19 | 360 | 9.7 | 24.1 | 0.00 | 0.00 | 0.00 | 24 | 1014.1 |
| 20260509173512 | 19 | 331 | 12.9 | 24.1 | 0.00 | 0.00 | 0.00 | 24 | 1014.2 |
| 20260509173003 | 19 | 336 | 8.0 | 22.5 | 0.00 | 0.00 | 0.00 | 24 | 1005.4 |
| 20260509172506 | 19 | 302 | 11.3 | 20.9 | 0.00 | 0.00 | 0.00 | 25 | 1014.3 |
| 20260509172006 | 19 | 301 | 11.3 | 24.1 | 0.00 | 0.00 | 0.00 | 21 | 1014.3 |
| 20260509171505 | 18 | 319 | 12.9 | 24.1 | 0.00 | 0.00 | 0.00 | 27 | 1014.3 |
| 20260509171502 | 18 | 319 | 12.9 | 24.1 | 0.00 | 0.00 | 0.00 | 27 | 1005.5 |
| 20260509171006 | 19 | 304 | 16.1 | 22.5 | 0.00 | 0.00 | 0.00 | 22 | 1014.3 |
| 20260509170506 | 18 | 355 | 6.4 | 19.3 | 0.00 | 0.00 | 0.00 | 27 | 1014.2 |
| 20260509170007 | 18 | 337 | 8.0 | 22.5 | 0.00 | 0.00 | 0.00 | 23 | 1014.1 |
| 20260509170004 | 18 | 337 | 6.4 | 22.5 | 0.00 | 0.00 | 0.00 | 23 | 1005.4 |
| 20260509165505 | 18 | 309 | 11.3 | 22.5 | 0.00 | 0.00 | 0.00 | 23 | 1014.1 |
| 20260509165006 | 18 | 288 | 12.9 | 20.9 | 0.00 | 0.00 | 0.00 | 25 | 1014.1 |
| 20260509164505 | 18 | 296 | 8.0 | 24.1 | 0.00 | 0.00 | 0.00 | 26 | 1014.2 |
| 20260509164006 | 18 | 322 | 16.1 | 24.1 | 0.00 | 0.00 | 0.00 | 24 | 1014.2 |
| 20260509163504 | 18 | 305 | 11.3 | 17.7 | 0.00 | 0.00 | 0.00 | 25 | 1014.1 |
| 20260509163003 | 18 | 5 | 4.8 | 16.1 | 0.00 | 0.00 | 0.00 | 27 | 1005.4 |
| 20260509162506 | 18 | 348 | 6.4 | 17.7 | 0.00 | 0.00 | 0.00 | 28 | 1014.0 |
| 20260509162000 | 17 | 327 | 6.4 | 24.1 | 0.00 | 0.00 | 0.00 | 28 | 1014.0 |
| 20260509161505 | 18 | 327 | 12.9 | 24.1 | 0.00 | 0.00 | 0.00 | 26 | 1014.1 |
| 20260509161503 | 18 | 327 | 12.9 | 24.1 | 0.00 | 0.00 | 0.00 | 26 | 1005.4 |
| 20260509161006 | 17 | 301 | 11.3 | 24.1 | 0.00 | 0.00 | 0.00 | 26 | 1014.0 |
| 20260509160505 | 17 | 338 | 9.7 | 29.0 | 0.00 | 0.00 | 0.00 | 27 | 1013.9 |
| 20260509160007 | 17 | 292 | 12.9 | 29.0 | 0.00 | 0.00 | 0.00 | 26 | 1014.0 |
| 20260509160004 | 17 | 292 | 11.3 | 29.0 | 0.00 | 0.00 | 0.00 | 26 | 1005.3 |
| 20260509155505 | 17 | 311 | 12.9 | 29.0 | 0.00 | 0.00 | 0.00 | 26 | 1014.0 |
| 20260509155005 | 17 | 283 | 20.9 | 29.0 | 0.00 | 0.00 | 0.00 | 27 | 1014.0 |
| 20260509154505 | 16 | 305 | 17.7 | 33.8 | 0.00 | 0.00 | 0.00 | 28 | 1013.9 |
| 20260509154503 | 16 | 305 | 17.7 | 33.8 | 0.00 | 0.00 | 0.00 | 28 | 1005.3 |
| 20260509154006 | 16 | 319 | 19.3 | 33.8 | 0.00 | 0.00 | 0.00 | 26 | 1014.0 |
| 20260509153011 | 16 | 308 | 22.5 | 32.2 | 0.00 | 0.00 | 0.00 | 27 | 1005.3 |
| 20260509152505 | 16 | 292 | 20.9 | 32.2 | 0.00 | 0.00 | 0.00 | 27 | 1013.9 |
| 20260509152006 | 16 | 288 | 17.7 | 32.2 | 0.00 | 0.00 | 0.00 | 30 | 1014.0 |
| 20260509151557 | 16 | 294 | 19.3 | 30.6 | 0.00 | 0.00 | 0.00 | 32 | 1005.4 |
| 20260509151508 | 16 | 293 | 19.3 | 30.6 | 0.00 | 0.00 | 0.00 | 30 | 1014.0 |
| 20260509151504 | 16 | 316 | 17.7 | 30.6 | 0.00 | 0.00 | 0.00 | 30 | 1005.4 |
| 20260509151006 | 16 | 279 | 19.3 | 30.6 | 0.00 | 0.00 | 0.00 | 31 | 1014.0 |
| 20260509150506 | 15 | 301 | 20.9 | 30.6 | 0.00 | 0.00 | 0.00 | 31 | 1014.0 |
| 20260509150007 | 15 | 318 | 22.5 | 30.6 | 0.00 | 0.00 | 0.00 | 31 | 1014.0 |
| 20260509150005 | 15 | 318 | 20.9 | 30.6 | 0.00 | 0.00 | 0.00 | 31 | 1005.6 |
| 20260509145504 | 15 | 281 | 20.9 | 29.0 | 0.00 | 0.00 | 0.00 | 33 | 1014.0 |
| 20260509145006 | 15 | 292 | 14.5 | 25.7 | 0.00 | 0.00 | 0.00 | 37 | 1014.0 |
| 20260509144506 | 15 | 294 | 12.9 | 20.9 | 0.00 | 0.00 | 0.00 | 38 | 1014.1 |
| 20260509144503 | 15 | 294 | 11.3 | 20.9 | 0.00 | 0.00 | 0.00 | 38 | 1005.6 |
| 20260509144006 | 14 | 280 | 6.4 | 16.1 | 0.00 | 0.00 | 0.00 | 42 | 1014.1 |
| 20260509143505 | 14 | 294 | 6.4 | 17.7 | 0.00 | 0.00 | 0.00 | 40 | 1014.1 |
| 20260509143007 | 13 | 281 | 11.3 | 17.7 | 0.00 | 0.00 | 0.00 | 43 | 1014.2 |
| 20260509143004 | 13 | 281 | 9.7 | 17.7 | 0.00 | 0.00 | 0.00 | 43 | 1005.7 |
| 20260509142506 | 13 | 294 | 8.0 | 16.1 | 0.00 | 0.00 | 0.00 | 46 | 1014.1 |
| 20260509141506 | 11 | 293 | 4.8 | 9.7 | 0.00 | 0.00 | 0.00 | 55 | 1014.2 |
| 20260509141504 | 11 | 293 | 3.2 | 9.7 | 0.00 | 0.00 | 0.00 | 55 | 1005.7 |
| 20260509141005 | 11 | 250 | 1.6 | 6.4 | 0.00 | 0.00 | 0.00 | 57 | 1014.2 |
| 20260509140505 | 11 | 250 | 3.2 | 6.4 | 0.00 | 0.00 | 0.00 | 56 | 1014.2 |
| 20260509140003 | 11 | 250 | 3.2 | 9.7 | 0.00 | 0.00 | 0.00 | 56 | 1005.7 |
| 20260509135505 | 11 | 255 | 4.8 | 8.0 | 0.00 | 0.00 | 0.00 | 55 | 1014.0 |
| 20260509135006 | 11 | 271 | 4.8 | 8.0 | 0.00 | 0.00 | 0.00 | 57 | 1014.0 |
| 20260509134505 | 11 | 254 | 3.2 | 11.3 | 0.00 | 0.00 | 0.00 | 59 | 1013.9 |
| 20260509134503 | 11 | 254 | 3.2 | 11.3 | 0.00 | 0.00 | 0.00 | 59 | 1005.5 |
| 20260509134006 | 11 | 246 | 4.8 | 11.3 | 0.00 | 0.00 | 0.00 | 57 | 1013.9 |
| 20260509133505 | 10 | 257 | 4.8 | 12.9 | 0.00 | 0.00 | 0.00 | 58 | 1014.0 |
| 20260509133006 | 10 | 232 | 4.8 | 12.9 | 0.00 | 0.00 | 0.00 | 58 | 1013.9 |
| 20260509132504 | 10 | 269 | 4.8 | 11.3 | 0.00 | 0.00 | 0.00 | 59 | 1013.6 |
| 20260509131505 | 10 | 265 | 6.4 | 12.9 | 0.00 | 0.00 | 0.00 | 59 | 1013.6 |
| 20260509131007 | 10 | 237 | 6.4 | 12.9 | 0.00 | 0.00 | 0.00 | 61 | 1013.6 |
| 20260509130009 | 10 | 254 | 4.8 | 16.1 | 0.00 | 0.00 | 0.00 | 64 | 1005.6 |
| 20260509130006 | 10 | 254 | 6.4 | 16.1 | 0.00 | 0.00 | 0.00 | 64 | 1013.6 |
| 20260509125505 | 9 | 240 | 4.8 | 12.9 | 0.00 | 0.00 | 0.00 | 65 | 1013.5 |
| 20260509125005 | 8 | 234 | 6.4 | 12.9 | 0.00 | 0.00 | 0.00 | 66 | 1013.4 |
| 20260509124503 | 8 | 211 | 3.2 | 9.7 | 0.00 | 0.00 | 0.00 | 67 | 1005.4 |
| 20260509124006 | 7 | 225 | 4.8 | 11.3 | 0.00 | 0.00 | 0.00 | 68 | 1013.3 |
| 20260509123504 | 7 | 196 | 6.4 | 11.3 | 0.00 | 0.00 | 0.00 | 68 | 1013.3 |
| 20260509123006 | 7 | 217 | 3.2 | 11.3 | 0.00 | 0.00 | 0.00 | 68 | 1013.2 |
| 20260509123003 | 7 | 217 | 3.2 | 11.3 | 0.00 | 0.00 | 0.00 | 68 | 1005.2 |
| 20260509122505 | 7 | 218 | 4.8 | 11.3 | 0.00 | 0.00 | 0.00 | 68 | 1013.2 |
| 20260509122006 | 7 | 220 | 4.8 | 9.7 | 0.00 | 0.00 | 0.00 | 68 | 1013.1 |
| 20260509121505 | 7 | 209 | 4.8 | 9.7 | 0.00 | 0.00 | 0.00 | 67 | 1013.1 |
| 20260509121033 | 7 | 199 | 6.4 | 9.7 | 0.00 | 0.00 | 0.00 | 67 | 1013.1 |
| 20260509120505 | 7 | 207 | 4.8 | 9.7 | 0.00 | 0.00 | 0.00 | 67 | 1013.0 |
| 20260509120012 | 7 | 214 | 3.2 | 11.3 | 0.00 | 0.00 | 0.00 | 67 | 1005.0 |
| 20260509120008 | 7 | 214 | 4.8 | 11.3 | 0.00 | 0.00 | 0.00 | 67 | 1012.9 |
| 20260509115504 | 7 | 191 | 4.8 | 11.3 | 0.00 | 0.00 | 0.00 | 66 | 1012.9 |
| 20260509114505 | 7 | 188 | 4.8 | 9.7 | 0.00 | 0.00 | 0.00 | 66 | 1012.7 |
| 20260509114503 | 7 | 188 | 3.2 | 9.7 | 0.00 | 0.00 | 0.00 | 66 | 1004.9 |
| 20260509113505 | 7 | 222 | 4.8 | 11.3 | 0.00 | 0.00 | 0.00 | 66 | 1012.8 |
| 20260509113006 | 7 | 206 | 4.8 | 9.7 | 0.00 | 0.00 | 0.00 | 66 | 1012.7 |
| 20260509113004 | 7 | 206 | 3.2 | 9.7 | 0.00 | 0.00 | 0.00 | 66 | 1004.8 |
| 20260509112005 | 7 | 222 | 4.8 | 11.3 | 0.00 | 0.00 | 0.00 | 65 | 1012.6 |
| 20260509111505 | 7 | 213 | 4.8 | 12.9 | 0.00 | 0.00 | 0.00 | 65 | 1012.6 |
| 20260509111503 | 7 | 213 | 4.8 | 12.9 | 0.00 | 0.00 | 0.00 | 65 | 1004.9 |
| 20260509111005 | 7 | 211 | 6.4 | 12.9 | 0.00 | 0.00 | 0.00 | 65 | 1012.6 |
| 20260509110506 | 7 | 200 | 6.4 | 11.3 | 0.00 | 0.00 | 0.00 | 65 | 1012.6 |
| 20260509110006 | 7 | 246 | 4.8 | 11.3 | 0.00 | 0.00 | 0.00 | 65 | 1012.7 |
| 20260509110003 | 7 | 246 | 4.8 | 11.3 | 0.00 | 0.00 | 0.00 | 65 | 1005.1 |
| 20260509105505 | 7 | 190 | 6.4 | 12.9 | 0.00 | 0.00 | 0.00 | 65 | 1012.8 |
| 20260509105000 | 7 | 205 | 6.4 | 12.9 | 0.00 | 0.00 | 0.00 | 64 | 1012.8 |
| 20260509104505 | 8 | 196 | 4.8 | 9.7 | 0.00 | 0.00 | 0.00 | 64 | 1012.8 |
| 20260509104503 | 8 | 196 | 4.8 | 9.7 | 0.00 | 0.00 | 0.00 | 64 | 1005.1 |
| 20260509104005 | 7 | 202 | 4.8 | 8.0 | 0.00 | 0.00 | 0.00 | 64 | 1012.7 |
| 20260509103505 | 7 | 190 | 3.2 | 6.4 | 0.00 | 0.00 | 0.00 | 64 | 1012.7 |
| 20260509103005 | 7 | 221 | 1.6 | 6.4 | 0.00 | 0.00 | 0.00 | 64 | 1012.7 |
| 20260509103003 | 7 | 221 | 1.6 | 6.4 | 0.00 | 0.00 | 0.00 | 64 | 1005.1 |
| 20260509102505 | 8 | 221 | 0.0 | 6.4 | 0.00 | 0.00 | 0.00 | 64 | 1012.7 |
| 20260509102006 | 8 | 221 | 3.2 | 6.4 | 0.00 | 0.00 | 0.00 | 63 | 1012.7 |
| 20260509101502 | 8 | 221 | 0.0 | 8.0 | 0.00 | 0.00 | 0.00 | 62 | 1005.1 |
| 20260509101006 | 8 | 256 | 1.6 | 11.3 | 0.00 | 0.00 | 0.00 | 61 | 1012.7 |
| 20260509100504 | 8 | 256 | 3.2 | 12.9 | 0.00 | 0.00 | 0.00 | 60 | 1012.7 |
| 20260509100008 | 9 | 237 | 4.8 | 16.1 | 0.00 | 0.00 | 0.00 | 60 | 1012.7 |
| 20260509100005 | 9 | 237 | 4.8 | 16.1 | 0.00 | 0.00 | 0.00 | 60 | 1005.1 |
| 20260509095505 | 9 | 187 | 9.7 | 16.1 | 0.00 | 0.00 | 0.00 | 59 | 1012.7 |
| 20260509095005 | 9 | 188 | 4.8 | 16.1 | 0.00 | 0.00 | 0.00 | 59 | 1012.6 |
| 20260509094505 | 9 | 203 | 6.4 | 20.9 | 0.00 | 0.00 | 0.00 | 59 | 1004.9 |
| 20260509093505 | 9 | 171 | 11.3 | 20.9 | 0.00 | 0.00 | 0.00 | 59 | 1012.5 |
| 20260509093004 | 9 | 178 | 9.7 | 20.9 | 0.00 | 0.00 | 0.00 | 59 | 1004.9 |
| 20260509092505 | 9 | 217 | 9.7 | 17.7 | 0.00 | 0.00 | 0.00 | 60 | 1012.5 |
| 20260509092005 | 9 | 181 | 12.9 | 22.5 | 0.00 | 0.00 | 0.00 | 60 | 1012.5 |
| 20260509091506 | 9 | 175 | 9.7 | 19.3 | 0.00 | 0.00 | 0.00 | 60 | 1012.5 |
| 20260509091504 | 9 | 175 | 8.0 | 19.3 | 0.00 | 0.00 | 0.00 | 60 | 1004.9 |
| 20260509091005 | 9 | 205 | 9.7 | 22.5 | 0.00 | 0.00 | 0.00 | 60 | 1012.6 |
| 20260509090505 | 10 | 227 | 8.0 | 22.5 | 0.00 | 0.00 | 0.00 | 59 | 1012.6 |
| 20260509090004 | 10 | 173 | 6.4 | 17.7 | 0.00 | 0.00 | 0.00 | 59 | 1005.1 |
| 20260509085504 | 10 | 240 | 6.4 | 22.5 | 0.00 | 0.00 | 0.00 | 58 | 1012.6 |
| 20260509085005 | 10 | 192 | 11.3 | 22.5 | 0.00 | 0.00 | 0.00 | 58 | 1012.6 |
| 20260509084504 | 10 | 258 | 9.7 | 24.1 | 0.00 | 0.00 | 0.00 | 57 | 1012.7 |
| 20260509084005 | 10 | 195 | 9.7 | 19.3 | 0.00 | 0.00 | 0.00 | 57 | 1012.7 |
| 20260509083504 | 10 | 205 | 11.3 | 24.1 | 0.00 | 0.00 | 0.00 | 57 | 1012.5 |
| 20260509083007 | 10 | 235 | 11.3 | 22.5 | 0.00 | 0.00 | 0.00 | 57 | 1012.6 |
| 20260509083003 | 10 | 235 | 11.3 | 22.5 | 0.00 | 0.00 | 0.00 | 57 | 1005.1 |
| 20260509082505 | 10 | 155 | 9.7 | 17.7 | 0.00 | 0.00 | 0.00 | 57 | 1012.6 |
| 20260509082006 | 10 | 219 | 9.7 | 24.1 | 0.00 | 0.00 | 0.00 | 57 | 1012.7 |
| 20260509081505 | 10 | 170 | 8.0 | 24.1 | 0.00 | 0.00 | 0.00 | 57 | 1012.7 |
| 20260509081503 | 10 | 170 | 8.0 | 24.1 | 0.00 | 0.00 | 0.00 | 57 | 1005.4 |
| 20260509081006 | 10 | 220 | 11.3 | 25.7 | 0.00 | 0.00 | 0.00 | 56 | 1012.7 |
| 20260509080007 | 10 | 196 | 9.7 | 22.5 | 0.00 | 0.00 | 0.00 | 56 | 1012.7 |
| 20260509080004 | 10 | 196 | 8.0 | 22.5 | 0.00 | 0.00 | 0.00 | 56 | 1005.5 |
| 20260509075505 | 10 | 199 | 9.7 | 30.6 | 0.00 | 0.00 | 0.00 | 57 | 1012.7 |
| 20260509075005 | 10 | 190 | 12.9 | 30.6 | 0.00 | 0.00 | 0.00 | 57 | 1012.7 |
| 20260509074505 | 10 | 191 | 9.7 | 22.5 | 0.00 | 0.00 | 0.00 | 58 | 1012.8 |
| 20260509074503 | 10 | 191 | 8.0 | 22.5 | 0.00 | 0.00 | 0.00 | 58 | 1005.6 |
| 20260509074006 | 10 | 207 | 11.3 | 20.9 | 0.00 | 0.00 | 0.00 | 58 | 1012.9 |
| 20260509073505 | 10 | 219 | 11.3 | 17.7 | 0.00 | 0.00 | 0.00 | 59 | 1013.0 |
| 20260509073003 | 9 | 166 | 9.7 | 20.9 | 0.00 | 0.00 | 0.00 | 60 | 1005.8 |
| 20260509072005 | 8 | 182 | 6.4 | 11.3 | 0.00 | 0.00 | 0.00 | 62 | 1013.2 |
| 20260509071506 | 8 | 169 | 4.8 | 9.7 | 0.00 | 0.00 | 0.00 | 62 | 1013.3 |
| 20260509071503 | 8 | 169 | 4.8 | 9.7 | 0.00 | 0.00 | 0.00 | 62 | 1006.0 |
| 20260509071002 | 9 | 171 | 3.2 | 11.3 | 0.00 | 0.00 | 0.00 | 62 | 1013.5 |
| 20260509070505 | 9 | 172 | 6.4 | 14.5 | 0.00 | 0.00 | 0.00 | 60 | 1013.5 |
| 20260509070004 | 9 | 187 | 8.0 | 14.5 | 0.00 | 0.00 | 0.00 | 60 | 1006.3 |
| 20260509065006 | 10 | 184 | 9.7 | 17.7 | 0.00 | 0.00 | 0.00 | 58 | 1013.6 |
| 20260509064505 | 10 | 164 | 11.3 | 16.1 | 0.00 | 0.00 | 0.00 | 57 | 1013.8 |
| 20260509064503 | 10 | 164 | 9.7 | 16.1 | 0.00 | 0.00 | 0.00 | 57 | 1006.5 |
| 20260509064006 | 10 | 178 | 9.7 | 16.1 | 0.00 | 0.00 | 0.00 | 57 | 1013.8 |
| 20260509063505 | 10 | 165 | 9.7 | 17.7 | 0.00 | 0.00 | 0.00 | 56 | 1013.8 |
| 20260509063007 | 10 | 171 | 12.9 | 16.1 | 0.00 | 0.00 | 0.00 | 55 | 1013.9 |
| 20260509063002 | 10 | 171 | 12.9 | 16.1 | 0.00 | 0.00 | 0.00 | 55 | 1006.6 |
| 20260509062006 | 11 | 164 | 14.5 | 20.9 | 0.00 | 0.00 | 0.00 | 54 | 1014.0 |
| 20260509061504 | 11 | 170 | 11.3 | 24.1 | 0.00 | 0.00 | 0.00 | 54 | 1014.1 |
| 20260509061502 | 11 | 170 | 11.3 | 24.1 | 0.00 | 0.00 | 0.00 | 54 | 1006.8 |
| 20260509061005 | 11 | 178 | 11.3 | 22.5 | 0.00 | 0.00 | 0.00 | 54 | 1014.2 |
| 20260509060058 | 11 | 176 | 12.9 | 24.1 | 0.00 | 0.00 | 0.00 | 55 | 1007.0 |
| 20260509060000 | 11 | 167 | 12.9 | 24.1 | 0.00 | 0.00 | 0.00 | 55 | 1014.3 |
| 20260509055506 | 11 | 175 | 16.1 | 24.1 | 0.00 | 0.00 | 0.00 | 55 | 1014.3 |
| 20260509055007 | 11 | 171 | 12.9 | 17.7 | 0.00 | 0.00 | 0.00 | 55 | 1014.4 |
| 20260509054504 | 11 | 167 | 9.7 | 17.7 | 0.00 | 0.00 | 0.00 | 55 | 1007.3 |
| 20260509053459 | 11 | 184 | 8.0 | 17.7 | 0.00 | 0.00 | 0.00 | 56 | 1014.6 |
| 20260509053010 | 11 | 182 | 12.9 | 17.7 | 0.00 | 0.00 | 0.00 | 56 | 1007.5 |
| 20260509053006 | 11 | 182 | 12.9 | 17.7 | 0.00 | 0.00 | 0.00 | 56 | 1014.8 |
| 20260509052505 | 11 | 159 | 12.9 | 17.7 | 0.00 | 0.00 | 0.00 | 57 | 1014.8 |
| 20260509052007 | 10 | 171 | 12.9 | 17.7 | 0.00 | 0.00 | 0.00 | 58 | 1014.7 |
| 20260509051505 | 10 | 191 | 11.3 | 16.1 | 0.00 | 0.00 | 0.00 | 60 | 1014.7 |
| 20260509051006 | 10 | 161 | 8.0 | 11.3 | 0.00 | 0.00 | 0.00 | 62 | 1014.7 |
| 20260509050506 | 10 | 157 | 8.0 | 12.9 | 0.00 | 0.00 | 0.00 | 65 | 1014.8 |
| 20260509050006 | 8 | 167 | 6.4 | 9.7 | 0.00 | 0.00 | 0.00 | 68 | 1007.6 |
| 20260509045505 | 8 | 150 | 1.6 | 8.0 | 0.00 | 0.00 | 0.00 | 71 | 1015.0 |
| 20260509045007 | 8 | 150 | 3.2 | 6.4 | 0.00 | 0.00 | 0.00 | 71 | 1015.0 |
| 20260509044505 | 8 | 150 | 3.2 | 6.4 | 0.00 | 0.00 | 0.00 | 71 | 1015.0 |
| 20260509043007 | 8 | 205 | 3.2 | 6.4 | 0.00 | 0.00 | 0.00 | 71 | 1015.1 |
| 20260509043005 | 8 | 205 | 1.6 | 6.4 | 0.00 | 0.00 | 0.00 | 71 | 1007.9 |
| 20260509042506 | 8 | 178 | 1.6 | 6.4 | 0.00 | 0.00 | 0.00 | 70 | 1015.0 |
| 20260509042006 | 8 | 178 | 4.8 | 6.4 | 0.00 | 0.00 | 0.00 | 68 | 1015.1 |
| 20260509041506 | 9 | 178 | 1.6 | 4.8 | 0.00 | 0.00 | 0.00 | 67 | 1015.2 |
| 20260509041504 | 9 | 178 | 1.6 | 4.8 | 0.00 | 0.00 | 0.00 | 67 | 1007.9 |
| 20260509041007 | 9 | 178 | 3.2 | 8.0 | 0.00 | 0.00 | 0.00 | 65 | 1015.1 |
| 20260509040505 | 9 | 178 | 4.8 | 8.0 | 0.00 | 0.00 | 0.00 | 65 | 1015.1 |
| 20260509040007 | 9 | 175 | 6.4 | 8.0 | 0.00 | 0.00 | 0.00 | 66 | 1015.0 |
| 20260509040005 | 9 | 175 | 4.8 | 8.0 | 0.00 | 0.00 | 0.00 | 66 | 1007.7 |
| 20260509034505 | 8 | 160 | 0.0 | 0.0 | 0.00 | 0.00 | 0.00 | 68 | 1015.1 |
| 20260509034503 | 8 | 160 | 0.0 | 0.0 | 0.00 | 0.00 | 0.00 | 68 | 1007.8 |
| 20260509034007 | 8 | 160 | 0.0 | 0.0 | 0.00 | 0.00 | 0.00 | 68 | 1014.9 |
| 20260509033506 | 9 | 160 | 0.0 | 1.6 | 0.00 | 0.00 | 0.00 | 67 | 1014.8 |
| 20260509033008 | 9 | 160 | 0.0 | 1.6 | 0.00 | 0.00 | 0.00 | 67 | 1007.6 |
| 20260509032506 | 10 | 160 | 0.0 | 1.6 | 0.00 | 0.00 | 0.00 | 63 | 1014.9 |
| 20260509032018 | 10 | 160 | 0.0 | 3.2 | 0.00 | 0.00 | 0.00 | 62 | 1014.9 |
| 20260509031505 | 10 | 160 | 0.0 | 8.0 | 0.00 | 0.00 | 0.00 | 60 | 1007.4 |
| 20260509031007 | 11 | 160 | 4.8 | 8.0 | 0.00 | 0.00 | 0.00 | 60 | 1014.8 |
| 20260509030505 | 10 | 160 | 3.2 | 12.9 | 0.00 | 0.00 | 0.00 | 61 | 1014.6 |
| 20260509030007 | 10 | 154 | 6.4 | 12.9 | 0.00 | 0.00 | 0.00 | 62 | 1014.4 |
| 20260509030004 | 10 | 154 | 4.8 | 12.9 | 0.00 | 0.00 | 0.00 | 62 | 1007.1 |
| 20260509025505 | 10 | 156 | 8.0 | 12.9 | 0.00 | 0.00 | 0.00 | 63 | 1014.3 |
| 20260509025006 | 10 | 152 | 9.7 | 12.9 | 0.00 | 0.00 | 0.00 | 63 | 1014.3 |
| 20260509024506 | 10 | 153 | 6.4 | 9.7 | 0.00 | 0.00 | 0.00 | 63 | 1014.4 |
| 20260509024504 | 10 | 153 | 4.8 | 9.7 | 0.00 | 0.00 | 0.00 | 63 | 1007.0 |
| 20260509023506 | 10 | 101 | 3.2 | 4.8 | 0.00 | 0.00 | 0.00 | 64 | 1014.5 |
| 20260509023008 | 11 | 101 | 0.0 | 4.8 | 0.00 | 0.00 | 0.00 | 62 | 1007.0 |
| 20260509022506 | 11 | 101 | 3.2 | 6.4 | 0.00 | 0.00 | 0.00 | 62 | 1014.4 |
| 20260509022005 | 11 | 101 | 3.2 | 9.7 | 0.00 | 0.00 | 0.00 | 62 | 1014.4 |
| 20260509021512 | 11 | 101 | 3.2 | 9.7 | 0.00 | 0.00 | 0.00 | 62 | 1006.8 |
| 20260509021006 | 11 | 101 | 4.8 | 6.4 | 0.00 | 0.00 | 0.00 | 62 | 1014.2 |
| 20260509020004 | 11 | 101 | 3.2 | 4.8 | 0.00 | 0.00 | 0.00 | 61 | 1006.6 |
| 20260509015506 | 11 | 101 | 3.2 | 4.8 | 0.00 | 0.00 | 0.00 | 60 | 1014.0 |
| 20260509015006 | 11 | 101 | 4.8 | 4.8 | 0.00 | 0.00 | 0.00 | 61 | 1013.9 |
| 20260509014501 | 12 | 101 | 3.2 | 4.8 | 0.00 | 0.00 | 0.00 | 59 | 1006.4 |
| 20260509013505 | 12 | 101 | 3.2 | 4.8 | 0.00 | 0.00 | 0.00 | 56 | 1013.9 |
| 20260509013011 | 13 | 101 | 3.2 | 6.4 | 0.00 | 0.00 | 0.00 | 54 | 1006.3 |
| 20260509012505 | 13 | 101 | 4.8 | 6.4 | 0.00 | 0.00 | 0.00 | 54 | 1013.6 |
| 20260509011506 | 14 | 94 | 4.8 | 9.7 | 0.00 | 0.00 | 0.00 | 51 | 1013.8 |
| 20260509011504 | 14 | 94 | 3.2 | 9.7 | 0.00 | 0.00 | 0.00 | 51 | 1006.2 |
| 20260509011006 | 14 | 94 | 3.2 | 4.8 | 0.00 | 0.00 | 0.00 | 50 | 1013.9 |
| 20260509010459 | 14 | 94 | 1.6 | 4.8 | 0.00 | 0.00 | 0.00 | 50 | 1014.0 |
| 20260509010006 | 14 | 94 | 3.2 | 9.7 | 0.00 | 0.00 | 0.00 | 48 | 1013.8 |
| 20260509010004 | 14 | 94 | 1.6 | 9.7 | 0.00 | 0.00 | 0.00 | 48 | 1006.2 |
| 20260509005505 | 14 | 94 | 4.8 | 11.3 | 0.00 | 0.00 | 0.00 | 46 | 1013.9 |
| 20260509004514 | 15 | 93 | 9.7 | 17.7 | 0.00 | 0.00 | 0.00 | 45 | 1006.2 |
| 20260509004505 | 15 | 93 | 9.7 | 17.7 | 0.00 | 0.00 | 0.00 | 45 | 1013.9 |
| 20260509004006 | 15 | 80 | 12.9 | 17.7 | 0.00 | 0.00 | 0.00 | 44 | 1013.8 |
| 20260509003503 | 16 | 98 | 12.9 | 17.7 | 0.00 | 0.00 | 0.00 | 43 | 1013.7 |
| 20260509003006 | 16 | 78 | 11.3 | 16.1 | 0.00 | 0.00 | 0.00 | 43 | 1013.7 |
| 20260509003004 | 16 | 78 | 9.7 | 16.1 | 0.00 | 0.00 | 0.00 | 43 | 1005.9 |
| 20260509002505 | 16 | 109 | 6.4 | 12.9 | 0.00 | 0.00 | 0.00 | 43 | 1013.7 |
| 20260509002005 | 16 | 76 | 6.4 | 14.5 | 0.00 | 0.00 | 0.00 | 43 | 1013.7 |
| 20260509001506 | 16 | 69 | 9.7 | 14.5 | 0.00 | 0.00 | 0.00 | 42 | 1013.8 |
| 20260509001504 | 16 | 69 | 8.0 | 14.5 | 0.00 | 0.00 | 0.00 | 42 | 1006.1 |
| 20260509001006 | 16 | 42 | 8.0 | 14.5 | 0.00 | 0.00 | 0.00 | 42 | 1013.8 |
| 20260509000505 | 16 | 69 | 9.7 | 12.9 | 0.00 | 0.00 | 0.00 | 41 | 1013.8 |
| 20260509000005 | 16 | 17 | 4.8 | 9.7 | 0.00 | 0.00 | 0.00 | 40 | 1006.0 |
| 20260508235505 | 16 | 52 | 4.8 | 14.5 | 0.00 | 0.00 | 0.00 | 42 | 1013.8 |
| 20260508235007 | 16 | 39 | 6.4 | 16.1 | 0.00 | 0.00 | 0.00 | 40 | 1013.8 |
| 20260508234505 | 16 | 30 | 4.8 | 16.1 | 0.00 | 0.00 | 0.00 | 39 | 1013.7 |
| 20260508234503 | 16 | 30 | 4.8 | 16.1 | 0.00 | 0.00 | 0.00 | 39 | 1005.9 |
| 20260508233007 | 16 | 23 | 11.3 | 17.7 | 0.00 | 0.00 | 0.00 | 40 | 1013.6 |
| 20260508233004 | 16 | 23 | 9.7 | 17.7 | 0.00 | 0.00 | 0.00 | 40 | 1005.9 |
| 20260508232504 | 16 | 5 | 8.0 | 17.7 | 0.00 | 0.00 | 0.00 | 41 | 1013.7 |
| 20260508232007 | 16 | 323 | 3.2 | 17.7 | 0.00 | 0.00 | 0.00 | 41 | 1013.7 |
| 20260508231504 | 16 | 360 | 11.3 | 20.9 | 0.00 | 0.00 | 0.00 | 42 | 1005.9 |
| 20260508231006 | 16 | 61 | 12.9 | 20.9 | 0.00 | 0.00 | 0.00 | 42 | 1013.7 |